Home   Weather   Antwerp   Past weeks

Flag for Belgium Past Weather in Antwerp, Belgium — Yesterday and Last 2 Weeks

Now
39 °F

Passing clouds.


Feels Like: 35 °F
Forecast: 35 / 51 °F
Wind: 6 mph from Southwest

Location: Antwerp / Deurne

Current Time: Apr 26, 2017 at 5:59:10 am

Latest Report: Apr 26, 2017 at 5:20 am


Visibility: N/A

Pressure: 29.86 "Hg

Humidity: 81%

Dew Point: 34 °F

Location of AntwerpLocation

Past Weather in Antwerp — Graph

°F

Antwerp Temperature Yesterday

Maximum temperature yesterday: 50 °F (at 1:50 pm)
Minimum temperature yesterday: 41 °F (at 7:20 am)
Average temperature yesterday: 45 °F

High & Low Weather Summary for the Past Weeks

 TemperatureHumidityPressure
High59 °F (Apr 24, 2:50 pm)94% (Apr 15, 7:20 am)30.66 "Hg (Apr 15, 7:20 am)
Low28 °F (Apr 20, 4:20 am)30% (Apr 20, 3:20 pm)29.74 "Hg (Apr 25, 3:50 am)
Average47 °F66%30.20 "Hg
* Reported Apr 11 4:20 am — Apr 26 4:20 am, Antwerp, Weather by CustomWeather, © 2017

Note: Actual official high and low records may vary slightly from our data, if they occured in-between our weather recording intervals... More about our weather records

Advertising

Antwerp Weather History for the Previous 24 Hours

Scroll right to see more
 ConditionsComfort  
Time TempWeatherWind HumidityBarometerVisibility
4:20 am
Wed, Apr 26
39 °FClear.8 mph81%29.89 "Hg10 mi
3:50 am39 °FPassing clouds.6 mph81%29.89 "HgN/A
3:20 am39 °FClear.6 mph81%29.86 "Hg10 mi
2:50 am39 °FClear.7 mph75%29.86 "Hg10 mi
2:20 am39 °FClear.8 mph75%29.86 "Hg10 mi
1:50 am39 °FClear.6 mph70%29.86 "Hg10 mi
1:20 am41 °FClear.6 mph66%29.86 "Hg10 mi
12:50 am41 °FClear.8 mph61%29.86 "Hg10 mi
12:20 am41 °FClear.6 mph61%29.86 "Hg10 mi
11:50 pm
Tue, Apr 25
41 °FClear.5 mph66%29.86 "Hg10 mi
11:20 pm43 °FClear.5 mph61%29.86 "Hg10 mi
10:50 pm43 °FPassing clouds.6 mph61%29.86 "HgN/A
10:20 pm43 °FPassing clouds.6 mph61%29.89 "HgN/A
9:50 pm45 °FPassing clouds.7 mph57%29.86 "HgN/A
8:50 pm46 °FSunny.12 mph46%29.86 "Hg10 mi
8:20 pm46 °FSunny.13 mph46%29.86 "Hg10 mi
7:50 pm46 °FPassing clouds.13 mph46%29.86 "HgN/A
7:20 pm48 °FPassing clouds.13 mph40%29.86 "HgN/A
6:50 pm48 °FSunny.15 mph37%29.86 "Hg10 mi
6:20 pm48 °FSunny.16 mph40%29.86 "Hg10 mi
5:50 pm48 °FScattered clouds.15 mph40%29.86 "HgN/A
5:20 pm48 °FScattered clouds.15 mph46%29.86 "HgN/A
4:50 pm50 °FScattered clouds.16 mph47%29.86 "HgN/A
4:20 pm48 °FScattered clouds.16 mph50%29.86 "HgN/A
3:50 pm48 °FScattered clouds.15 mph50%29.86 "HgN/A
3:20 pm46 °FScattered clouds.17 mph53%29.86 "HgN/A
2:50 pm46 °FScattered clouds.17 mph50%29.86 "HgN/A
2:20 pm50 °FScattered clouds.18 mph50%29.86 "HgN/A
1:50 pm50 °FScattered clouds.14 mph50%29.86 "HgN/A
1:20 pm48 °FScattered clouds.17 mph62%29.86 "HgN/A
12:50 pm45 °FScattered clouds.9 mph71%29.86 "HgN/A
12:20 pm46 °FScattered clouds.9 mph76%29.83 "HgN/A
11:50 am41 °FSprinkles. Broken clouds.12 mph81%29.86 "HgN/A
11:20 am45 °FSprinkles. Partly sunny.9 mph71%29.83 "HgN/A
10:50 am45 °FPartly sunny.14 mph66%29.83 "HgN/A
10:20 am45 °FPartly sunny.17 mph61%29.83 "HgN/A
9:50 am45 °FPartly sunny.15 mph61%29.83 "HgN/A
9:20 am43 °FScattered clouds.14 mph66%29.83 "HgN/A
8:50 am43 °FPassing clouds.12 mph61%29.80 "HgN/A
8:20 am43 °FPassing clouds.12 mph66%29.80 "HgN/A
7:50 am41 °FPassing clouds.13 mph66%29.80 "HgN/A
7:20 am41 °FPassing clouds.13 mph70%29.80 "HgN/A
6:50 am43 °FPassing clouds.15 mph61%29.77 "HgN/A
6:20 am43 °FPassing clouds.12 mph66%29.77 "HgN/A
5:50 am43 °FClear.10 mph66%29.77 "Hg10 mi
5:20 am45 °FPassing clouds.14 mph61%29.77 "HgN/A
Weather by CustomWeather, © 2017

See weather overviewHow to use our weather pages